AirNav   Air Wisconsin Airman Trainee
 
 1038 users online  

CL35 Warner Springs Gliderport
Warner Springs, California, USA

GOING TO WARNER SPRINGS?


FAA INFORMATION EFFECTIVE 31 JANUARY 2019

Location

FAA Identifier: CL35
Lat/Long: 33-17-04.2100N / 116-40-10.7650W
33-17.070167N / 116-40.179417W
33.2845028 / -116.6696569
(estimated)
Elevation: 2880 ft. / 878 m (estimated)
Variation: 13E (1985)
From city: 2 miles E of WARNER SPRINGS, CA
Time zone: UTC -8 (UTC -7 during Daylight Saving Time)
Zip code: 92086

Gliderport Operations

Gliderport use: Private use. Permission required prior to landing
Activation date: 10/1984
Control tower: no
ARTCC: LOS ANGELES CENTER
FSS: SAN DIEGO FLIGHT SERVICE STATION
Attendance: 0900-1700
Wind indicator: yes
Segmented circle: yes
Landing fee: yes

Gliderport Communications

UNICOM: 122.8
WX AWOS-3P at L08 (18 nm E): 126.575 (760-767-3308)
WX ASOS at RNM (19 nm SW): 132.025 (760-789-0736)

Nearby radio navigation aids

VOR radial/distance  VOR name  Freq  Var
JLIr319/9.6JULIAN VORTAC114.0015E
TRMr218/32.8THERMAL VORTAC116.2013E
PSPr186/37.1PALM SPRINGS VORTAC115.5013E
OCNr071/37.6OCEANSIDE VORTAC115.3015E
HDFr125/(39.2)HOMELAND VOR113.4014E

Gliderport Services

Runway Information

Runway 8/26

Dimensions: 3500 x 70 ft. / 1067 x 21 m
Surface: asphalt
RUNWAY 8  RUNWAY 26
Latitude: 33-17.060333N33-17.080000N
Longitude: 116-40.522667W116-39.836167W
Elevation: 2873.0 ft.2914.0 ft.
Traffic pattern: leftleft
Obstructions: none200 ft. hill, 5200 ft. from runway

Gliderport Ownership and Management from official FAA records

Ownership: Privately-owned
Owner: WARNER SPRINGS RANCH RESORT, LLC
31930 HWY 79
WARNER SPRINGS, CA 92086
Phone 760-782-4200
SKY SAILING 31930 HWY 79.
Manager: BRET WILLAT
SKY SAILING 31930 HWY 79
WARNER SPRINGS, CA 92086
Phone 760-782-0404
LEASEE.

Gliderport Operational Statistics

Aircraft based on the field: 80
Single engine airplanes: 10
Gliders airplanes: 70
    

Instrument Procedures

There are no published instrument procedures at CL35.

Some nearby airports with instrument procedures:

L08 - Borrego Valley Airport (18 nm E)
KRNM - Ramona Airport (19 nm SW)
F70 - French Valley Airport (29 nm NW)
L18 - Fallbrook Community Airpark (29 nm W)
KSEE - Gillespie Field Airport (31 nm SW)
 
Loc | Ops | Rwys | IFR | FBO | Links
Com | Nav | Svcs | Stats | Notes
Area around CL35 (Warner Springs Gliderport)
 
Road maps at: MapQuest Bing Google
 
Aerial photo
WARNING: Photo may not be current or correct
Aerial photo of CL35 (Warner Springs Gliderport)
Photo by Steve Lupinacci
Photo taken 27-May-2008

Do you have a better or more recent aerial photo of Warner Springs Gliderport that you would like to share? If so, please send us your photo.

 
Sectional chart

 
Airport distance calculator
Flying to Warner Springs Gliderport? Find the distance to fly.

From to CL35

Sunrise and sunset
Times for 18-Feb-2019
 Local
(UTC-8)
 Zulu
(UTC)
Morning civil twilight06:0314:03
Sunrise06:2814:28
Sunset17:3301:33
Evening civil twilight17:5801:58

Current date and time
Zulu (UTC)  18-Feb-2019 23:36:39
Local (UTC-8)  18-Feb-2019 15:36:39
 
METAR
KL08 
18nm E 
182315Z AUTO 24014KT 10SM FEW065 09/01 A2999 RMK AO2
KRNM 
20nm SW 
182253Z 27008KT 10SM CLR 11/M01 A2996 RMK AO2 SLP146 T01061011 $
KF70 
29nm NW 
182315Z AUTO 00000KT 10SM SCT060 11/M04 A2996 RMK AO1
KL18 
29nm W 
182315Z AUTO 25007KT 10SM SCT080 BKN100 12/M00 A2999 RMK AO2
KSEE 
32nm SW 
182247Z 26009KT 10SM SCT060 12/00 A3000
KCRQ 
32nm W 
182253Z AUTO 25008KT 10SM CLR 13/00 A2999 RMK AO2 SLP155 T01280000
KTRM 
33nm NE 
182252Z AUTO 34009KT 10SM CLR 17/M08 A2995 RMK AO2 SLP140 T01671078
KPSP 
33nm N 
182317Z 32008KT 10SM CLR 13/M01 A2998 RMK AO2 WSHFT 2257 T01331011
KNFG 
33nm W 
182255Z AUTO 28007KT 10SM CLR 12/01 A3000 RMK AO2 SLP159 T01220006 $
KNKX 
34nm SW 
182255Z 29007KT 10SM SCT047 BKN055 14/01 A2999 RMK AO2 SLP153 T01440011 $
TAF
KCRQ 
32nm W 
181732Z 1818/1918 VRB04KT P6SM FEW040 FM182000 27008KT P6SM SKC FM190100 VRB03KT P6SM SKC
KTRM 
33nm NE 
181732Z 1818/1918 32010KT P6SM SKC
KPSP 
33nm N 
181732Z 1818/1918 VRB03KT P6SM SKC FM182000 04008KT P6SM SKC FM190100 31010KT P6SM SKC FM190800 31004KT P6SM SKC
NOTAMs
Click for the latest NOTAMs
NOTAMs are issued by the DoD/FAA and will open in a separate window not controlled by AirNav.

 

 
 

Would you like to see your business listed on this page?

 If your business provides an interesting product or service to pilots, flight crews, aircraft, or users of the Warner Springs Gliderport, you should consider listing it here.  To start the listing process, click on the button below
 
Add a business
 

Other Pages about Warner Springs Gliderport

www.agcsc.org/warner_springs_info.html
 
Update a link
 
Copyright © AirNav, LLC. All rights reserved. Privacy Policy  Contact